User: anonymous   Login
Location: Vancouver
(49.2500°N, 123.1330°W)
Time: 02:44:57
(UTC-08:00)
Language:

Cosmos 2333 Rocket - Orbit

View from above orbital plane
View from above orbital plane
View from above satellite
View from above satellite

Ground track
Ground track

The orbit data is extracted from the following two-line orbital elements,

1 24298U 96051B   16041.17339815 -.00000065  00000-0 -86645-5 0  9992
2 24298  70.8347  21.3602 0018184 204.3241 155.7023 14.12387309  2203
Epoch (UTC): 10 February 2016 04:09:41
Eccentricity: 0.0018184
inclination: 70.8347°
perigee height: 838 km
apogee height: 864 km
right ascension of ascending node: 21.3602°
argument of perigee: 204.3241°
revolutions per day: 14.12387309
mean anomaly at epoch: 155.7023°
orbit number at epoch: 220

The dashed part of the orbit path shows where the satellite is in the earth's shadow,  

DLR